map of PPM home
PPM - Airport
Location
City:  Pompano Beach, Florida, United States
Name:Pompano Beach Airpark
ICAO:KPMP
IATA:PPM
FAA LID:PMP

Details
Type:Airport (Airfield)
Use:Public/Civil
Latitude:2614'51"N (26.247401)
Longitude:8006'40"W (-80.111207)
Datum:WGS 1984
Elevation:19 ft (6 m)
Variation:6.84W (WMM2015 magnetic declination)
-0.10 annual change
Runways:3
Longest:4918 × 150 ft (1499 × 45.5 m), paved

Time
Time Zone:UTC-5 (DST-4)
Local Time:

Weather
METAR:KPMP 200653Z AUTO 10016G20KT 9SM FEW023 OVC055 25/22 A3026 RMK AO2 SLP247 T02500217

Related Locations
Nearby:
Farthest:USL: 11608 mi / 18682 km
Useless Loop, WA, AU

Find:

   beyond  
but within

Other Information
Maps:
NOTAMs:
Links:
Sources:

  
flag of United States
flag of Florida
  

Goodyear GZ20A blimp


Airport Diagram

Airport diagram for PPM

Airport diagram PDF

Sectional Chart

Flight Planning
at skyvector.com

Satellite Image

Google Maps Satellite view

 

Copyright © 2004-2018 Karl L. Swartz. All rights reserved.
The Great Circle Mapper name and logo are trademarks of the Great Circle Mapper.
All other trademarks mentioned herein belong to their respective owners.
Please see credits for attibutions and further copyright information.

  Follow gcmap on Facebook Follow gcmap on Twitter Follow gcmap on Google+ GCmap on LinkedIn

hCard Microformat

Geo Microformat